Tracking 29528 objects as of 12-Sep-2024
HD Live streaming from Space Station
objects crossing your sky now

DELTA 1 DEB

Track DELTA 1 DEB now!
10-day predictions


NORAD ID: 27727
Int'l Code: 1976-077FS
Perigee: 1,494.2 km
Apogee: 2,171.7 km
Inclination: 102.7 °
Period: 123.3 minutes
Semi major axis: 8203 km
RCS: 0.0294 m2 (small)
Launch date: July 29, 1976
Source: United States (US)
Launch site: AIR FORCE WESTERN TEST RANGE (AFWTR)

Note: This is SATELLITE DEBRIS
Your satellite tracking list
Your tracking list is empty




NASA's NSSDC Master Catalog

Two Line Element Set (TLE):
1 27727U 76077FS  24253.35932387  .00000007  00000-0  65104-3 0  9994
2 27727 102.6711  29.5433 0412941  96.3304 296.4284 11.68338517436154
Source of the keplerian elements: AFSPC